contact:dominique.lefevre@mio.osupytheas.fr, maurice.libes@osupytheas.fr, didier.mallarino@osupytheas.fr
Project:EMSO http://www.emso-fr.org/EMSO-France
Depth: 2436.0 m
Title:EMSO Ligure Ouest : Data MII capteur AQUADOPP
Date,Latitude,Longitude,X_East,Y_North,Z_Up,Amplitude_X,Amplitude_Y,Amplitude_Z,Batterie,SoundSpeed,Heading,Pitch,Roll,Pressure,TIS,Speed,Direction
, degrees North, degrees East, m.s-1, m.s-1,m.s-1, 1, 1, 1, Volt, m.s-1, degree, degree, degree, dbar, degree_C, m.s-1, degree
2021-11-13T00:04:03,42.805,6.029,-0.043,-0.014,-0.01,102.0,102.0,101.0,13.4,1505.2,325.4,-0.8,1.8,2470.678,13.28,0.045,252.0
2021-11-13T00:07:03,42.805,6.029,-0.015,-0.007,-0.016,101.0,102.0,101.0,13.4,1505.2,328.6,-0.8,1.8,2470.675,13.28,0.016,245.0
2021-11-13T00:10:03,42.805,6.029,-0.019,-0.011,-0.014,101.0,102.0,101.0,13.4,1505.2,330.7,-0.7,1.8,2470.696,13.28,0.021,239.9
2021-11-13T00:13:03,42.805,6.029,-0.031,-0.002,-0.031,101.0,101.0,102.0,13.4,1505.2,331.4,-0.8,1.9,2470.67,13.28,0.031,266.3
2021-11-13T00:16:03,42.805,6.029,-0.015,-0.014,-0.019,100.0,103.0,101.0,13.4,1505.2,331.7,-0.8,1.8,2470.675,13.28,0.02,227.0
2021-11-13T00:19:03,42.805,6.029,-0.003,-0.036,-0.002,103.0,101.0,100.0,13.4,1505.2,330.0,-0.7,1.8,2470.662,13.28,0.036,184.8
2021-11-13T00:22:03,42.805,6.029,-0.011,-0.024,-0.035,102.0,100.0,102.0,13.4,1505.2,328.0,-0.7,1.8,2470.619,13.28,0.026,204.6
2021-11-13T00:25:03,42.805,6.029,0.01,-0.016,-0.019,102.0,100.0,101.0,13.4,1505.2,329.8,-0.8,1.8,2470.66,13.28,0.018,148.0
2021-11-13T00:28:03,42.805,6.029,-0.017,-0.017,-0.042,102.0,102.0,102.0,13.3,1505.2,329.9,-0.8,1.8,2470.641,13.28,0.024,225.0
2021-11-13T00:31:03,42.805,6.029,-0.009,-0.034,-0.015,102.0,102.0,101.0,13.4,1505.2,327.3,-0.8,1.8,2470.656,13.28,0.035,194.8
2021-11-13T00:34:03,42.805,6.029,-0.008,-0.006,-0.023,101.0,102.0,101.0,13.4,1505.2,329.6,-0.7,1.8,2470.656,13.28,0.01,233.1
2021-11-13T00:37:03,42.805,6.029,-0.02,-0.032,-0.037,102.0,101.0,101.0,13.4,1505.2,329.7,-0.7,1.9,2470.643,13.28,0.037,212.0
2021-11-13T00:40:03,42.805,6.029,-0.005,-0.015,-0.009,102.0,101.0,101.0,13.4,1505.2,329.1,-0.8,1.8,2470.653,13.28,0.015,198.4
2021-11-13T00:43:03,42.805,6.029,-0.018,-0.021,0.0,101.0,101.0,102.0,13.4,1505.2,325.3,-0.7,1.8,2470.649,13.28,0.027,220.6
2021-11-13T00:46:03,42.805,6.029,-0.016,-0.011,0.0,101.0,103.0,100.0,13.4,1505.2,330.9,-0.7,1.8,2470.683,13.28,0.019,235.5
2021-11-13T00:49:03,42.805,6.029,-0.028,-0.033,-0.041,101.0,101.0,101.0,13.4,1505.2,327.3,-0.8,1.8,2470.677,13.28,0.043,220.3
2021-11-13T00:52:03,42.805,6.029,-0.004,-0.021,-0.008,102.0,102.0,100.0,13.3,1505.2,325.2,-0.7,1.8,2470.668,13.28,0.021,190.8
2021-11-13T00:55:03,42.805,6.029,-0.046,-0.018,-0.005,102.0,101.0,100.0,13.4,1505.2,330.9,-0.8,1.8,2470.669,13.29,0.049,248.6
2021-11-13T00:58:03,42.805,6.029,-0.007,-0.037,0.016,101.0,101.0,101.0,13.4,1505.2,328.3,-0.7,1.8,2470.65,13.28,0.037,190.7
2021-11-13T01:04:03,42.805,6.029,-0.014,-0.038,-0.033,103.0,103.0,102.0,13.4,1505.2,325.7,-0.7,1.8,2470.69,13.28,0.04,200.2
2021-11-13T01:07:03,42.805,6.029,-0.011,-0.023,-0.008,102.0,102.0,101.0,13.4,1505.2,329.8,-0.8,1.9,2470.696,13.28,0.025,205.6
2021-11-13T01:10:03,42.805,6.029,-0.016,-0.031,-0.051,103.0,102.0,102.0,13.4,1505.2,328.9,-0.8,1.8,2470.709,13.28,0.034,207.3
2021-11-13T01:13:03,42.805,6.029,-0.023,-0.033,-0.018,103.0,102.0,102.0,13.4,1505.2,327.0,-0.7,1.8,2470.662,13.28,0.04,214.9
2021-11-13T01:16:03,42.805,6.029,-0.002,-0.011,0.012,101.0,102.0,101.0,13.4,1505.2,331.3,-0.8,1.8,2470.698,13.28,0.011,190.3
2021-11-13T01:19:03,42.805,6.029,-0.03,-0.013,-0.003,103.0,101.0,100.0,13.4,1505.2,329.2,-0.8,1.8,2470.654,13.28,0.032,246.6
2021-11-13T01:22:03,42.805,6.029,-0.019,-0.025,-0.008,100.0,102.0,102.0,13.4,1505.2,330.2,-0.8,1.8,2470.674,13.28,0.031,217.2
2021-11-13T01:25:03,42.805,6.029,-0.022,-0.018,0.0,101.0,101.0,101.0,13.3,1505.2,328.1,-0.7,1.8,2470.668,13.28,0.028,230.7
2021-11-13T01:28:03,42.805,6.029,-0.008,-0.036,-0.003,102.0,101.0,101.0,13.4,1505.2,330.0,-0.7,1.8,2470.677,13.28,0.036,192.5
2021-11-13T01:31:03,42.805,6.029,-0.013,-0.019,0.004,102.0,101.0,100.0,13.4,1505.2,326.7,-0.8,1.8,2470.629,13.28,0.023,214.4
2021-11-13T01:34:03,42.805,6.029,-0.026,-0.016,0.0,102.0,102.0,101.0,13.4,1505.2,328.2,-0.8,1.8,2470.663,13.28,0.03,238.4
2021-11-13T01:37:03,42.805,6.029,0.002,-0.031,0.002,103.0,101.0,99.0,13.4,1505.2,331.2,-0.8,1.8,2470.648,13.28,0.031,176.3
2021-11-13T01:40:03,42.805,6.029,-0.012,-0.018,-0.036,103.0,102.0,99.0,13.4,1505.2,331.8,-0.8,1.8,2470.668,13.28,0.021,213.7
2021-11-13T01:43:03,42.805,6.029,-0.006,-0.029,-0.02,101.0,101.0,101.0,13.4,1505.2,331.5,-0.7,1.8,2470.647,13.28,0.029,191.7
2021-11-13T01:46:03,42.805,6.029,-0.037,-0.025,0.0,102.0,101.0,100.0,13.3,1505.2,328.2,-0.7,1.8,2470.654,13.28,0.044,236.0
2021-11-13T01:49:03,42.805,6.029,-0.01,-0.03,-0.021,101.0,102.0,102.0,13.4,1505.2,327.0,-0.7,1.8,2470.682,13.28,0.031,198.4
2021-11-13T01:52:03,42.805,6.029,-0.011,-0.014,-0.003,102.0,102.0,101.0,13.4,1505.2,331.6,-0.7,1.8,2470.652,13.28,0.017,218.2
2021-11-13T01:55:03,42.805,6.029,-0.014,-0.009,-0.009,101.0,102.0,101.0,13.4,1505.2,330.1,-0.8,1.8,2470.695,13.28,0.016,237.3
2021-11-13T01:58:03,42.805,6.029,-0.01,-0.042,-0.019,103.0,101.0,101.0,13.4,1505.2,326.6,-0.8,1.8,2470.65,13.28,0.043,193.4
2021-11-13T02:04:03,42.805,6.029,-0.032,-0.025,-0.022,102.0,102.0,101.0,13.4,1505.2,325.6,-0.8,1.8,2470.727,13.28,0.04,232.0
2021-11-13T02:07:03,42.805,6.029,-0.03,-0.031,-0.036,102.0,101.0,101.0,13.4,1505.2,332.0,-0.8,1.8,2470.684,13.28,0.043,224.1
2021-11-13T02:10:03,42.805,6.029,-0.014,-0.022,-0.018,101.0,101.0,102.0,13.4,1505.2,326.4,-0.8,1.8,2470.704,13.28,0.026,212.5
2021-11-13T02:13:03,42.805,6.029,-0.011,-0.035,-0.02,101.0,103.0,100.0,13.4,1505.2,329.4,-0.7,1.8,2470.717,13.28,0.036,197.4
2021-11-13T02:16:03,42.805,6.029,-0.018,-0.028,-0.03,101.0,102.0,101.0,13.4,1505.2,326.8,-0.7,1.8,2470.698,13.28,0.033,212.7
2021-11-13T02:19:03,42.805,6.029,-0.023,-0.016,-0.038,102.0,102.0,100.0,13.4,1505.2,326.7,-0.7,1.8,2470.674,13.28,0.028,235.2
2021-11-13T02:22:03,42.805,6.029,-0.028,-0.017,-0.031,100.0,102.0,101.0,13.4,1505.2,330.2,-0.7,1.8,2470.714,13.28,0.032,238.7
2021-11-13T02:25:03,42.805,6.029,-0.006,-0.026,-0.027,103.0,101.0,101.0,13.4,1505.2,331.9,-0.8,1.8,2470.705,13.28,0.026,193.0
2021-11-13T02:28:03,42.805,6.029,-0.03,-0.011,-0.045,101.0,102.0,101.0,13.4,1505.2,330.4,-0.7,1.8,2470.687,13.28,0.031,249.9
2021-11-13T02:31:03,42.805,6.029,-0.003,-0.03,0.011,102.0,102.0,101.0,13.4,1505.2,330.9,-0.8,1.9,2470.688,13.28,0.03,185.7
2021-11-13T02:34:03,42.805,6.029,-0.03,-0.01,-0.029,101.0,101.0,101.0,13.4,1505.2,330.5,-0.8,1.8,2470.685,13.28,0.031,251.6
2021-11-13T02:37:03,42.805,6.029,-0.033,-0.026,-0.046,101.0,101.0,101.0,13.4,1505.2,329.4,-0.7,1.8,2470.685,13.28,0.042,231.8
2021-11-13T02:40:03,42.805,6.029,-0.036,-0.01,-0.021,103.0,102.0,100.0,13.3,1505.2,328.1,-0.7,1.8,2470.664,13.28,0.037,254.5
2021-11-13T02:43:03,42.805,6.029,-0.01,-0.023,-0.006,102.0,102.0,102.0,13.4,1505.2,325.3,-0.7,1.8,2470.707,13.28,0.025,203.5
2021-11-13T02:46:03,42.805,6.029,-0.01,-0.034,-0.017,102.0,101.0,100.0,13.3,1505.2,325.7,-0.7,1.8,2470.695,13.28,0.035,196.4
2021-11-13T02:49:03,42.805,6.029,-0.015,-0.028,-0.033,101.0,102.0,101.0,13.3,1505.2,326.7,-0.8,1.8,2470.667,13.28,0.031,208.2
2021-11-13T02:52:03,42.805,6.029,-0.028,-0.016,-0.031,101.0,101.0,102.0,13.4,1505.2,331.6,-0.7,1.8,2470.667,13.28,0.032,240.3
2021-11-13T02:55:03,42.805,6.029,-0.019,-0.006,-0.037,102.0,101.0,100.0,13.3,1505.2,330.0,-0.8,1.8,2470.693,13.28,0.019,252.5
2021-11-13T02:58:03,42.805,6.029,-0.015,-0.035,-0.023,102.0,101.0,101.0,13.3,1505.2,331.1,-0.8,1.8,2470.661,13.28,0.038,203.2
2021-11-13T03:04:03,42.805,6.029,-0.017,-0.02,0.013,102.0,102.0,101.0,13.4,1505.2,327.0,-0.8,1.8,2470.718,13.28,0.026,220.4
2021-11-13T03:07:03,42.805,6.029,-0.012,-0.008,0.005,103.0,101.0,100.0,13.4,1505.2,329.5,-0.8,1.8,2470.725,13.28,0.014,236.3
2021-11-13T03:10:03,42.805,6.029,-0.007,-0.015,-0.01,102.0,102.0,101.0,13.3,1505.2,325.5,-0.7,1.8,2470.724,13.28,0.016,205.0
2021-11-13T03:13:03,42.805,6.029,-0.013,-0.025,-0.019,101.0,101.0,101.0,13.4,1505.2,325.7,-0.8,1.8,2470.716,13.28,0.028,207.5
2021-11-13T03:16:03,42.805,6.029,-0.034,-0.005,-0.015,101.0,101.0,102.0,13.4,1505.2,331.2,-0.8,1.8,2470.669,13.28,0.034,261.6
2021-11-13T03:19:03,42.805,6.029,-0.024,-0.02,-0.025,102.0,101.0,100.0,13.4,1505.2,329.2,-0.8,1.8,2470.646,13.28,0.031,230.2
2021-11-13T03:22:03,42.805,6.029,-0.018,-0.027,-0.022,102.0,103.0,100.0,13.4,1505.2,326.4,-0.7,1.8,2470.694,13.28,0.032,213.7
2021-11-13T03:25:03,42.805,6.029,-0.003,-0.022,-0.015,102.0,102.0,100.0,13.3,1505.2,328.0,-0.8,1.8,2470.703,13.28,0.022,187.8
2021-11-13T03:28:03,42.805,6.029,-0.021,-0.024,-0.007,102.0,101.0,101.0,13.4,1505.2,325.3,-0.7,1.8,2470.681,13.28,0.031,221.2
2021-11-13T03:31:03,42.805,6.029,-0.034,-0.007,-0.009,102.0,103.0,101.0,13.4,1505.2,330.0,-0.7,1.8,2470.706,13.28,0.034,258.4
2021-11-13T03:34:03,42.805,6.029,-0.01,-0.04,-0.016,102.0,103.0,101.0,13.4,1505.2,327.7,-0.8,1.9,2470.706,13.28,0.041,194.0
2021-11-13T03:37:03,42.805,6.029,-0.016,-0.037,-0.054,103.0,101.0,101.0,13.4,1505.2,325.1,-0.8,1.8,2470.694,13.28,0.04,203.4
2021-11-13T03:40:03,42.805,6.029,-0.011,-0.031,-0.009,102.0,101.0,101.0,13.4,1505.2,325.3,-0.8,1.8,2470.675,13.29,0.032,199.5
2021-11-13T03:43:03,42.805,6.029,-0.025,-0.019,-0.013,103.0,101.0,101.0,13.4,1505.2,326.8,-0.8,1.8,2470.697,13.29,0.031,232.8
2021-11-13T03:46:03,42.805,6.029,-0.02,-0.023,-0.019,100.0,101.0,102.0,13.4,1505.2,327.8,-0.8,1.8,2470.674,13.28,0.03,221.0
2021-11-13T03:49:03,42.805,6.029,-0.025,-0.016,-0.041,102.0,101.0,101.0,13.4,1505.2,329.1,-0.7,1.8,2470.661,13.28,0.029,237.4
2021-11-13T03:52:03,42.805,6.029,-0.019,-0.02,-0.043,101.0,102.0,100.0,13.4,1505.2,325.9,-0.8,1.9,2470.71,13.28,0.027,223.5
2021-11-13T03:55:03,42.805,6.029,-0.013,-0.031,-0.018,102.0,101.0,101.0,13.4,1505.2,328.1,-0.7,1.8,2470.699,13.29,0.033,202.7
2021-11-13T03:58:03,42.805,6.029,-0.026,-0.033,-0.019,101.0,102.0,101.0,13.3,1505.2,329.5,-0.7,1.8,2470.673,13.28,0.042,218.2
2021-11-13T04:04:03,42.805,6.029,-0.016,-0.023,-0.015,102.0,103.0,101.0,13.4,1505.2,325.7,-0.7,1.8,2470.716,13.28,0.028,214.8
2021-11-13T04:07:03,42.805,6.029,-0.042,-0.026,-0.024,102.0,103.0,100.0,13.4,1505.2,330.0,-0.7,1.8,2470.71,13.28,0.049,238.2
2021-11-13T04:10:03,42.805,6.029,-0.014,-0.021,-0.025,102.0,102.0,101.0,13.4,1505.2,329.5,-0.7,1.8,2470.712,13.28,0.025,213.7
2021-11-13T04:13:03,42.805,6.029,-0.027,0.0,-0.024,102.0,102.0,102.0,13.4,1505.2,331.3,-0.7,1.9,2470.662,13.28,0.026,270.0
2021-11-13T04:16:03,42.805,6.029,-0.02,-0.033,-0.032,103.0,102.0,102.0,13.4,1505.2,326.4,-0.8,1.8,2470.748,13.28,0.038,211.2
2021-11-13T04:19:03,42.805,6.029,-0.025,-0.019,-0.031,101.0,102.0,100.0,13.3,1505.2,326.9,-0.8,1.8,2470.703,13.28,0.031,232.8
2021-11-13T04:22:03,42.805,6.029,-0.016,-0.026,-0.027,103.0,102.0,101.0,13.4,1505.2,331.2,-0.7,1.8,2470.668,13.28,0.03,211.6
2021-11-13T04:25:03,42.805,6.029,-0.021,-0.02,0.012,103.0,102.0,101.0,13.4,1505.2,326.6,-0.7,1.8,2470.707,13.28,0.028,226.4
2021-11-13T04:28:03,42.805,6.029,-0.008,-0.02,-0.034,101.0,103.0,101.0,13.4,1505.2,325.7,-0.7,1.8,2470.702,13.28,0.021,201.8
2021-11-13T04:31:03,42.805,6.029,-0.011,-0.023,-0.008,102.0,102.0,102.0,13.4,1505.2,331.1,-0.7,1.8,2470.693,13.28,0.025,205.6
2021-11-13T04:34:03,42.805,6.029,-0.007,-0.029,-0.016,102.0,101.0,102.0,13.4,1505.2,329.4,-0.8,1.8,2470.686,13.28,0.029,193.6
2021-11-13T04:37:03,42.805,6.029,-0.001,-0.036,-0.023,104.0,103.0,101.0,13.4,1505.2,328.9,-0.8,1.8,2470.658,13.28,0.036,181.6
2021-11-13T04:40:03,42.805,6.029,-0.038,-0.018,-0.016,102.0,102.0,102.0,13.3,1505.2,326.2,-0.8,1.8,2470.675,13.28,0.042,244.7
2021-11-13T04:43:03,42.805,6.029,-0.014,-0.013,-0.019,102.0,103.0,101.0,13.4,1505.2,326.9,-0.7,1.8,2470.669,13.28,0.019,227.1
2021-11-13T04:46:03,42.805,6.029,-0.024,-0.026,-0.047,104.0,101.0,101.0,13.4,1505.2,330.3,-0.8,1.8,2470.679,13.28,0.035,222.7
2021-11-13T04:49:03,42.805,6.029,-0.03,-0.034,-0.039,103.0,102.0,101.0,13.3,1505.2,325.2,-0.7,1.8,2470.702,13.28,0.045,221.4
2021-11-13T04:52:03,42.805,6.029,-0.012,-0.046,-0.034,102.0,103.0,103.0,13.3,1505.2,327.3,-0.7,1.8,2470.702,13.28,0.047,194.6
2021-11-13T04:55:03,42.805,6.029,-0.024,-0.031,-0.026,103.0,102.0,102.0,13.4,1505.2,328.9,-0.8,1.8,2470.661,13.28,0.039,217.7
2021-11-13T04:58:03,42.805,6.029,-0.005,-0.041,-0.004,102.0,103.0,101.0,13.4,1505.2,326.5,-0.7,1.8,2470.687,13.28,0.041,187.0
2021-11-13T05:04:03,42.805,6.029,-0.032,-0.042,-0.007,103.0,103.0,102.0,13.4,1505.2,328.8,-0.8,1.8,2470.689,13.28,0.052,217.3
2021-11-13T05:07:03,42.805,6.029,-0.041,-0.027,-0.044,103.0,103.0,101.0,13.4,1505.2,327.6,-0.7,1.8,2470.674,13.28,0.049,236.6
2021-11-13T05:10:03,42.805,6.029,-0.036,-0.025,-0.037,104.0,101.0,101.0,13.4,1505.2,329.2,-0.8,1.8,2470.691,13.28,0.043,235.2
2021-11-13T05:13:03,42.805,6.029,-0.038,-0.008,0.001,103.0,100.0,101.0,13.4,1505.2,326.9,-0.8,1.8,2470.664,13.28,0.038,258.1
2021-11-13T05:16:03,42.805,6.029,-0.028,-0.01,-0.016,100.0,101.0,101.0,13.4,1505.2,329.0,-0.7,1.8,2470.686,13.28,0.029,250.4
2021-11-13T05:19:03,42.805,6.029,-0.032,-0.026,-0.033,102.0,102.0,101.0,13.4,1505.2,327.3,-0.7,1.8,2470.686,13.28,0.041,230.9
2021-11-13T05:22:03,42.805,6.029,-0.024,-0.022,-0.014,102.0,102.0,101.0,13.3,1505.2,329.6,-0.8,1.8,2470.714,13.28,0.032,227.5
2021-11-13T05:25:03,42.805,6.029,-0.012,-0.01,0.006,101.0,101.0,101.0,13.4,1505.2,326.6,-0.8,1.8,2470.663,13.28,0.015,230.2
2021-11-13T05:28:03,42.805,6.029,-0.032,-0.009,-0.016,102.0,101.0,101.0,13.4,1505.2,326.7,-0.8,1.8,2470.64,13.28,0.033,254.3
2021-11-13T05:31:03,42.805,6.029,-0.041,-0.01,-0.035,103.0,103.0,101.0,13.4,1505.2,329.9,-0.7,1.8,2470.69,13.28,0.042,256.3
2021-11-13T05:34:03,42.805,6.029,-0.023,0.0,0.017,102.0,102.0,100.0,13.4,1505.2,329.9,-0.8,1.8,2470.685,13.28,0.023,270.0
2021-11-13T05:37:03,42.805,6.029,-0.027,-0.021,-0.025,102.0,102.0,102.0,13.4,1505.2,327.1,-0.7,1.8,2470.664,13.28,0.034,232.1
2021-11-13T05:40:03,42.805,6.029,-0.018,-0.019,-0.008,103.0,101.0,101.0,13.4,1505.2,329.2,-0.7,1.8,2470.651,13.28,0.026,223.5
2021-11-13T05:43:03,42.805,6.029,-0.025,-0.032,-0.019,103.0,102.0,101.0,13.4,1505.2,328.6,-0.7,1.8,2470.678,13.28,0.04,218.0
2021-11-13T05:46:03,42.805,6.029,-0.025,-0.022,-0.001,103.0,102.0,102.0,13.3,1505.2,330.7,-0.8,1.8,2470.636,13.28,0.033,228.7
2021-11-13T05:49:03,42.805,6.029,-0.007,-0.002,-0.022,102.0,102.0,101.0,13.4,1505.2,326.3,-0.7,1.8,2470.663,13.28,0.007,254.1
2021-11-13T05:52:03,42.805,6.029,-0.034,-0.011,-0.048,102.0,103.0,101.0,13.3,1505.2,327.0,-0.7,1.8,2470.625,13.28,0.035,252.1
2021-11-13T05:55:03,42.805,6.029,-0.017,-0.036,-0.009,102.0,101.0,101.0,13.3,1505.2,329.9,-0.7,1.8,2470.675,13.28,0.039,205.3
2021-11-13T05:58:03,42.805,6.029,-0.026,-0.014,-0.001,103.0,102.0,100.0,13.4,1505.2,329.1,-0.8,1.8,2470.707,13.28,0.029,241.7
2021-11-13T06:04:03,42.805,6.029,-0.035,0.006,-0.009,103.0,104.0,100.0,13.4,1505.2,330.9,-0.8,1.8,2470.719,13.28,0.035,279.7
2021-11-13T06:07:03,42.805,6.029,-0.022,-0.02,-0.008,102.0,104.0,102.0,13.4,1505.2,330.7,-0.7,1.8,2470.694,13.28,0.029,227.7
2021-11-13T06:10:03,42.805,6.029,-0.019,-0.026,-0.031,103.0,102.0,102.0,13.4,1505.2,327.2,-0.7,1.8,2470.659,13.28,0.032,216.2
2021-11-13T06:13:03,42.805,6.029,-0.012,-0.002,-0.006,104.0,103.0,101.0,13.4,1505.2,326.3,-0.8,1.8,2470.686,13.28,0.012,260.5
2021-11-13T06:16:03,42.805,6.029,-0.039,-0.012,-0.009,103.0,102.0,101.0,13.4,1505.2,330.2,-0.7,1.9,2470.674,13.28,0.04,252.9
2021-11-13T06:19:03,42.805,6.029,-0.032,-0.021,-0.032,103.0,101.0,102.0,13.4,1505.2,327.1,-0.8,1.8,2470.664,13.28,0.038,236.7
2021-11-13T06:22:03,42.805,6.029,-0.035,-0.006,-0.013,103.0,102.0,101.0,13.4,1505.2,328.6,-0.8,1.8,2470.67,13.28,0.035,260.3
2021-11-13T06:25:03,42.805,6.029,-0.028,-0.002,-0.012,103.0,102.0,101.0,13.4,1505.2,328.2,-0.7,1.9,2470.653,13.28,0.028,265.9
2021-11-13T06:28:03,42.805,6.029,-0.035,0.001,-0.013,103.0,103.0,100.0,13.4,1505.2,327.7,-0.8,1.8,2470.657,13.28,0.035,271.6
2021-11-13T06:31:03,42.805,6.029,-0.021,-0.006,-0.007,102.0,103.0,102.0,13.4,1505.2,331.9,-0.8,1.8,2470.646,13.28,0.021,254.1
2021-11-13T06:34:03,42.805,6.029,-0.026,-0.021,-0.027,103.0,103.0,101.0,13.4,1505.2,326.6,-0.8,1.8,2470.634,13.28,0.033,231.1
2021-11-13T06:37:03,42.805,6.029,-0.029,-0.034,-0.027,102.0,103.0,101.0,13.4,1505.2,331.2,-0.7,1.8,2470.636,13.28,0.044,220.5
2021-11-13T06:40:03,42.805,6.029,-0.038,-0.017,0.011,102.0,102.0,101.0,13.3,1505.2,330.9,-0.8,1.8,2470.66,13.28,0.041,245.9
2021-11-13T06:43:03,42.805,6.029,-0.041,-0.012,-0.014,102.0,102.0,100.0,13.4,1505.2,330.8,-0.8,1.8,2470.589,13.28,0.042,253.7
2021-11-13T06:46:03,42.805,6.029,-0.023,-0.029,-0.038,103.0,102.0,101.0,13.4,1505.2,328.5,-0.7,1.8,2470.646,13.28,0.037,218.4
2021-11-13T06:49:03,42.805,6.029,-0.024,-0.026,-0.024,102.0,102.0,101.0,13.4,1505.2,328.6,-0.7,1.8,2470.616,13.28,0.035,222.7
2021-11-13T06:52:03,42.805,6.029,-0.035,-0.014,-0.037,102.0,102.0,102.0,13.4,1505.2,328.2,-0.7,1.8,2470.665,13.28,0.037,248.2
2021-11-13T06:55:03,42.805,6.029,-0.06,-0.014,-0.04,102.0,101.0,101.0,13.3,1505.2,326.8,-0.8,1.8,2470.631,13.28,0.061,256.9
2021-11-13T06:58:03,42.805,6.029,-0.031,-0.006,-0.004,102.0,102.0,101.0,13.4,1505.2,329.4,-0.8,1.8,2470.65,13.28,0.031,259.0
2021-11-13T07:04:03,42.805,6.029,-0.024,-0.024,-0.037,101.0,101.0,102.0,13.4,1505.2,327.4,-0.8,1.8,2470.644,13.28,0.033,225.0
2021-11-13T07:07:03,42.805,6.029,-0.022,-0.046,-0.044,103.0,101.0,100.0,13.3,1505.2,324.6,-0.7,1.8,2470.662,13.28,0.05,205.6
2021-11-13T07:10:03,42.805,6.029,-0.035,-0.027,-0.072,102.0,102.0,101.0,13.3,1505.2,327.8,-0.7,1.8,2470.674,13.28,0.044,232.3
2021-11-13T07:13:03,42.805,6.029,-0.03,-0.027,-0.06,102.0,102.0,100.0,13.3,1505.2,328.5,-0.7,1.8,2470.679,13.28,0.04,228.0
2021-11-13T07:16:03,42.805,6.029,-0.024,-0.013,-0.027,103.0,103.0,101.0,13.3,1505.2,326.7,-0.8,1.8,2470.658,13.28,0.027,241.6
2021-11-13T07:19:03,42.805,6.029,-0.038,-0.004,0.009,102.0,102.0,101.0,13.4,1505.2,329.3,-0.7,1.8,2470.652,13.28,0.038,264.0
2021-11-13T07:22:03,42.805,6.029,-0.032,-0.017,-0.013,102.0,102.0,101.0,13.4,1505.2,332.4,-0.8,1.8,2470.582,13.28,0.036,242.0
2021-11-13T07:25:03,42.805,6.029,-0.033,-0.021,-0.02,103.0,101.0,101.0,13.4,1505.2,330.7,-0.7,1.8,2470.651,13.28,0.039,237.5
2021-11-13T07:28:03,42.805,6.029,-0.025,-0.016,-0.037,102.0,102.0,101.0,13.4,1505.2,326.7,-0.8,1.8,2470.663,13.28,0.029,237.4
2021-11-13T07:31:03,42.805,6.029,-0.048,-0.021,-0.018,103.0,102.0,102.0,13.4,1505.2,327.4,-0.8,1.8,2470.629,13.28,0.052,246.4
2021-11-13T07:34:03,42.805,6.029,-0.022,-0.014,-0.037,103.0,103.0,100.0,13.3,1505.2,327.2,-0.7,1.8,2470.68,13.28,0.026,237.5
2021-11-13T07:37:03,42.805,6.029,-0.047,-0.021,-0.045,103.0,103.0,100.0,13.4,1505.2,331.8,-0.8,1.8,2470.657,13.28,0.051,245.9
2021-11-13T07:40:03,42.805,6.029,-0.029,-0.013,-0.044,102.0,102.0,101.0,13.4,1505.2,327.8,-0.7,1.8,2470.625,13.28,0.031,245.9
2021-11-13T07:43:03,42.805,6.029,-0.02,-0.027,-0.019,103.0,102.0,101.0,13.4,1505.2,325.0,-0.8,1.8,2470.586,13.28,0.033,216.5
2021-11-13T07:46:03,42.805,6.029,-0.045,-0.026,-0.036,103.0,102.0,101.0,13.4,1505.2,328.0,-0.7,1.8,2470.574,13.28,0.051,240.0
2021-11-13T07:49:03,42.805,6.029,-0.039,-0.003,-0.02,103.0,103.0,101.0,13.4,1505.2,331.3,-0.8,1.8,2470.533,13.28,0.039,265.6
2021-11-13T07:52:03,42.805,6.029,-0.018,-0.016,-0.034,104.0,102.0,100.0,13.4,1505.2,327.5,-0.8,1.8,2470.542,13.28,0.024,228.4
2021-11-13T07:55:03,42.805,6.029,-0.04,-0.031,-0.042,103.0,102.0,101.0,13.4,1505.2,328.4,-0.8,1.9,2470.487,13.28,0.05,232.2
2021-11-13T07:58:03,42.805,6.029,-0.021,-0.019,-0.062,103.0,103.0,101.0,13.3,1505.2,326.5,-0.8,1.8,2470.522,13.28,0.028,227.9
2021-11-13T08:04:03,42.805,6.029,-0.023,-0.005,-0.044,103.0,102.0,102.0,13.3,1505.2,327.9,-0.8,1.8,2470.528,13.28,0.023,257.7
2021-11-13T08:07:03,42.805,6.029,-0.035,-0.037,-0.018,103.0,101.0,102.0,13.4,1505.2,328.6,-0.7,1.8,2470.502,13.28,0.05,223.4
2021-11-13T08:10:03,42.805,6.029,-0.022,-0.009,-0.013,104.0,101.0,102.0,13.4,1505.2,325.5,-0.8,1.8,2470.469,13.28,0.023,247.8
2021-11-13T08:13:03,42.805,6.029,-0.043,-0.004,-0.037,102.0,102.0,102.0,13.3,1505.2,328.8,-0.8,1.8,2470.485,13.28,0.043,264.7
2021-11-13T08:16:03,42.805,6.029,-0.019,-0.029,-0.044,102.0,101.0,102.0,13.4,1505.2,330.7,-0.8,1.8,2470.493,13.28,0.034,213.2
2021-11-13T08:19:03,42.805,6.029,-0.053,-0.004,-0.038,102.0,102.0,101.0,13.3,1505.2,331.5,-0.7,1.8,2470.505,13.28,0.053,265.7
2021-11-13T08:22:03,42.805,6.029,-0.025,-0.012,0.0,103.0,102.0,101.0,13.4,1505.2,331.8,-0.8,1.8,2470.525,13.28,0.027,244.4
2021-11-13T08:25:03,42.805,6.029,-0.017,-0.005,-0.048,102.0,103.0,101.0,13.4,1505.2,329.3,-0.7,1.8,2470.502,13.28,0.017,253.6
2021-11-13T08:28:03,42.805,6.029,-0.039,-0.002,-0.029,103.0,102.0,101.0,13.4,1505.2,328.2,-0.7,1.8,2470.512,13.28,0.039,267.1
2021-11-13T08:31:03,42.805,6.029,-0.055,0.0,-0.022,102.0,102.0,103.0,13.4,1505.2,325.5,-0.7,1.8,2470.489,13.28,0.055,270.0
2021-11-13T08:34:03,42.805,6.029,-0.026,-0.026,-0.032,102.0,103.0,101.0,13.4,1505.2,329.2,-0.8,1.8,2470.549,13.28,0.036,225.0
2021-11-13T08:37:03,42.805,6.029,-0.026,-0.012,-0.042,103.0,103.0,101.0,13.3,1505.2,330.9,-0.7,1.8,2470.563,13.28,0.028,245.2
2021-11-13T08:40:03,42.805,6.029,-0.016,-0.019,-0.033,104.0,101.0,101.0,13.4,1505.2,329.0,-0.7,1.8,2470.474,13.28,0.024,220.1
2021-11-13T08:43:03,42.805,6.029,-0.009,-0.006,-0.012,102.0,103.0,101.0,13.4,1505.2,328.0,-0.7,1.8,2470.528,13.28,0.01,236.3
2021-11-13T08:46:03,42.805,6.029,-0.035,-0.02,-0.026,103.0,103.0,101.0,13.3,1505.2,324.6,-0.8,1.8,2470.518,13.28,0.04,240.3
2021-11-13T08:49:03,42.805,6.029,-0.04,0.0,-0.027,102.0,103.0,101.0,13.3,1505.2,330.2,-0.8,1.8,2470.526,13.28,0.04,270.0
2021-11-13T08:52:03,42.805,6.029,-0.058,-0.022,-0.04,103.0,102.0,100.0,13.4,1505.2,325.7,-0.8,1.8,2470.535,13.28,0.062,249.2
2021-11-13T08:55:03,42.805,6.029,-0.033,0.005,-0.024,103.0,102.0,100.0,13.4,1505.2,328.3,-0.8,1.8,2470.527,13.28,0.033,278.6
2021-11-13T08:58:03,42.805,6.029,-0.028,-0.011,-0.033,102.0,102.0,101.0,13.3,1505.2,331.3,-0.8,1.9,2470.567,13.28,0.03,248.6
2021-11-13T09:04:03,42.805,6.029,-0.05,0.016,-0.013,103.0,101.0,101.0,13.4,1505.2,327.0,-0.8,1.8,2470.614,13.28,0.052,287.7
2021-11-13T09:07:03,42.805,6.029,-0.051,-0.006,-0.039,103.0,102.0,101.0,13.4,1505.2,329.5,-0.8,1.9,2470.58,13.28,0.051,263.3
2021-11-13T09:10:03,42.805,6.029,-0.039,0.009,0.005,101.0,100.0,102.0,13.4,1505.2,329.2,-0.7,1.8,2470.591,13.28,0.04,283.0
2021-11-13T09:13:03,42.805,6.029,-0.032,0.0,-0.042,101.0,102.0,101.0,13.4,1505.2,328.7,-0.8,1.8,2470.605,13.28,0.032,270.0
2021-11-13T09:16:03,42.805,6.029,-0.057,-0.007,-0.017,101.0,101.0,101.0,13.3,1505.2,328.6,-0.7,1.8,2470.546,13.28,0.057,263.0
2021-11-13T09:19:03,42.805,6.029,-0.065,0.016,-0.02,102.0,100.0,101.0,13.4,1505.2,329.2,-0.8,1.9,2470.605,13.28,0.066,283.8
2021-11-13T09:22:03,42.805,6.029,-0.045,-0.022,-0.036,101.0,102.0,100.0,13.4,1505.2,325.9,-0.7,1.8,2470.62,13.28,0.05,243.9
2021-11-13T09:25:03,42.805,6.029,-0.061,-0.004,-0.065,102.0,101.0,100.0,13.3,1505.2,329.2,-0.7,1.8,2470.607,13.28,0.061,266.3
2021-11-13T09:28:03,42.805,6.029,-0.02,-0.012,0.011,102.0,101.0,100.0,13.4,1505.2,329.1,-0.7,1.8,2470.574,13.28,0.023,239.0
2021-11-13T09:31:03,42.805,6.029,-0.041,0.001,-0.022,102.0,102.0,100.0,13.4,1505.2,326.7,-0.8,1.8,2470.584,13.28,0.041,271.4
2021-11-13T09:34:03,42.805,6.029,-0.051,0.005,-0.008,103.0,101.0,101.0,13.3,1505.2,328.7,-0.7,1.8,2470.595,13.28,0.051,275.6
2021-11-13T09:37:03,42.805,6.029,-0.059,-0.001,-0.055,102.0,101.0,100.0,13.4,1505.2,329.8,-0.7,1.8,2470.601,13.28,0.059,269.0
2021-11-13T09:40:03,42.805,6.029,-0.055,-0.005,-0.004,101.0,102.0,101.0,13.4,1505.2,330.7,-0.8,1.8,2470.583,13.28,0.055,264.8
2021-11-13T09:43:03,42.805,6.029,-0.036,-0.007,-0.026,102.0,101.0,101.0,13.4,1505.2,328.9,-0.8,1.8,2470.591,13.28,0.036,259.0
2021-11-13T09:46:03,42.805,6.029,-0.051,0.007,-0.023,103.0,102.0,100.0,13.4,1505.2,325.4,-0.7,1.8,2470.555,13.28,0.051,277.8
2021-11-13T09:49:03,42.805,6.029,-0.045,-0.015,-0.039,103.0,102.0,99.0,13.4,1505.2,328.3,-0.7,1.8,2470.632,13.28,0.047,251.6